FW0472 Weather Reports


Display with metric or nautical units.
time (UTC)temp
F
wind
direction
speed
MPH
gust
MPH
rain 1hr
in
rain 24hr
in
rain mn
in
humidity
%
barometer
mb
20260508002558 50 341 0.0 0.0 0.00 0.00 0.00 47 1034.2
20260508002055 50 21 1.0 2.0 0.00 0.00 0.00 45 1033.9
20260508001550 50 93 1.0 2.0 0.00 0.00 0.00 44 1033.9
20260508001047 50 22 1.0 1.0 0.00 0.00 0.00 46 1034.0
20260508000543 51 7 1.0 1.0 0.00 0.00 0.00 46 1033.7
20260508000040 51 356 0.0 0.0 0.00 0.00 0.00 42 1033.8
20260507235537 51 335 1.0 2.0 0.00 0.00 0.00 43 1033.9
20260507235035 52 343 1.0 1.0 0.00 0.00 0.00 42 1033.6
20260507234531 52 332 0.0 0.0 0.00 0.00 0.00 41 1033.6
20260507234027 52 301 0.0 1.0 0.00 0.00 0.00 40 1033.6
20260507233524 53 313 1.0 1.0 0.00 0.00 0.00 41 1033.3
20260507233023 53 321 1.0 2.0 0.00 0.00 0.00 40 1033.3
20260507232519 53 315 1.0 1.0 0.00 0.00 0.00 40 1033.5
20260507232016 54 332 0.0 0.0 0.00 0.00 0.00 40 1033.4
20260507231512 54 321 0.0 0.0 0.00 0.00 0.00 39 1033.2
20260507231010 54 330 1.0 1.0 0.00 0.00 0.00 39 1033.2
20260507230506 54 327 0.0 0.0 0.00 0.00 0.00 40 1033.4
20260507230002 54 307 2.0 2.0 0.00 0.00 0.00 39 1033.1
20260507225458 54 319 2.0 3.0 0.00 0.00 0.00 36 1033.1
20260507224954 54 332 0.0 0.0 0.00 0.00 0.00 38 1033.2
20260507224450 55 311 1.0 1.0 0.00 0.00 0.00 35 1033.1
20260507223947 55 326 0.0 0.0 0.00 0.00 0.00 38 1033.0
20260507223443 55 319 0.0 1.0 0.00 0.00 0.00 37 1033.1
20260507222941 56 316 0.0 1.0 0.00 0.00 0.00 36 1033.0
20260507222437 57 312 2.0 2.0 0.00 0.00 0.00 34 1032.8
20260507221934 58 314 3.0 3.0 0.00 0.00 0.00 32 1032.9
20260507221431 58 310 2.0 3.0 0.00 0.00 0.00 32 1032.9
20260507220926 59 303 2.0 2.0 0.00 0.00 0.00 32 1032.8
20260507220424 59 307 3.0 3.0 0.00 0.00 0.00 31 1032.8
20260507215921 60 328 1.0 1.0 0.00 0.00 0.00 33 1032.9
20260507215418 59 322 1.0 1.0 0.00 0.00 0.00 32 1032.8
20260507214915 60 287 2.0 3.0 0.00 0.00 0.00 31 1032.8
20260507214413 61 309 2.0 3.0 0.00 0.00 0.00 31 1032.6
20260507213908 61 326 1.0 2.0 0.00 0.00 0.00 32 1032.7
20260507213405 61 291 1.0 2.0 0.00 0.00 0.00 32 1032.9
20260507212902 62 257 3.0 3.0 0.00 0.00 0.00 31 1032.8
20260507212357 60 304 1.0 1.0 0.00 0.00 0.00 35 1032.7
20260507211854 61 304 2.0 2.0 0.00 0.00 0.00 31 1032.8
20260507211351 61 298 3.0 5.0 0.00 0.00 0.00 29 1032.8
20260507210848 61 314 1.0 2.0 0.00 0.00 0.00 32 1032.8
20260507210345 61 300 1.0 2.0 0.00 0.00 0.00 33 1032.8
20260507205841 62 303 2.0 2.0 0.00 0.00 0.00 34 1032.7
20260507205338 63 262 4.0 6.0 0.00 0.00 0.00 30 1032.5
20260507204834 61 314 0.0 1.0 0.00 0.00 0.00 31 1032.6
20260507204331 61 249 3.0 3.0 0.00 0.00 0.00 32 1032.7
20260507203829 60 299 1.0 2.0 0.00 0.00 0.00 34 1032.6
20260507203327 60 271 1.0 2.0 0.00 0.00 0.00 33 1032.7
20260507202823 60 335 0.0 0.0 0.00 0.00 0.00 32 1032.6
20260507202319 59 335 1.0 1.0 0.00 0.00 0.00 34 1032.7
20260507201815 60 283 2.0 2.0 0.00 0.00 0.00 32 1032.5
20260507201311 60 329 0.0 0.0 0.00 0.00 0.00 35 1032.6
20260507200808 60 299 2.0 2.0 0.00 0.00 0.00 36 1032.6
20260507200303 61 325 1.0 1.0 0.00 0.00 0.00 37 1032.6
20260507195759 61 328 1.0 1.0 0.00 0.00 0.00 32 1032.8
20260507195257 61 308 4.0 7.0 0.00 0.00 0.00 31 1032.7
20260507194754 60 303 1.0 1.0 0.00 0.00 0.00 33 1032.8
20260507194250 60 298 1.0 2.0 0.00 0.00 0.00 35 1032.7
20260507193747 59 325 1.0 1.0 0.00 0.00 0.00 36 1032.9
20260507193244 59 283 3.0 3.0 0.00 0.00 0.00 35 1032.7
20260507192740 61 289 3.0 3.0 0.00 0.00 0.00 35 1032.7
20260507192236 61 331 0.0 0.0 0.00 0.00 0.00 37 1032.8
20260507191733 61 303 2.0 2.0 0.00 0.00 0.00 33 1033.0
20260507191230 61 175 2.0 2.0 0.00 0.00 0.00 32 1032.9
20260507190726 60 248 2.0 2.0 0.00 0.00 0.00 33 1033.0
20260507190225 60 341 0.0 0.0 0.00 0.00 0.00 34 1033.0
20260507185723 59 311 2.0 2.0 0.00 0.00 0.00 39 1033.1
20260507185220 58 232 3.0 3.0 0.00 0.00 0.00 37 1033.0
20260507184717 57 321 1.0 1.0 0.00 0.00 0.00 37 1033.1
20260507184215 57 299 1.0 2.0 0.00 0.00 0.00 37 1033.1
20260507183711 59 311 3.0 3.0 0.00 0.00 0.00 36 1033.0
20260507183208 59 291 2.0 2.0 0.00 0.00 0.00 37 1033.1
20260507182706 59 287 2.0 3.0 0.00 0.00 0.00 35 1033.3
20260507182201 59 295 2.0 2.0 0.00 0.00 0.00 36 1033.2
20260507181658 60 308 2.0 2.0 0.00 0.00 0.00 36 1033.2
20260507181154 57 314 3.0 3.0 0.00 0.00 0.00 38 1033.1
20260507180650 58 319 1.0 1.0 0.00 0.00 0.00 37 1033.3
20260507180148 59 325 2.0 3.0 0.00 0.00 0.00 36 1033.3
20260507175643 59 270 2.0 3.0 0.00 0.00 0.00 38 1033.3
20260507175141 59 295 2.0 2.0 0.00 0.00 0.00 37 1033.2
20260507174638 58 310 1.0 1.0 0.00 0.00 0.00 39 1033.3
20260507174136 58 344 1.0 2.0 0.00 0.00 0.00 38 1033.4
20260507173633 59 315 2.0 2.0 0.00 0.00 0.00 41 1033.4
20260507173130 58 325 1.0 1.0 0.00 0.00 0.00 36 1033.3
20260507172626 58 307 1.0 2.0 0.00 0.00 0.00 44 1033.4
20260507172124 58 307 1.0 1.0 0.00 0.00 0.00 41 1033.4
20260507171618 59 334 3.0 9.0 0.00 0.00 0.00 37 1033.5
20260507171116 58 313 1.0 1.0 0.00 0.00 0.00 42 1033.6
20260507170613 57 287 2.0 2.0 0.00 0.00 0.00 42 1033.6
20260507170110 58 284 4.0 5.0 0.00 0.00 0.00 38 1033.8
20260507165605 57 331 1.0 1.0 0.00 0.00 0.00 44 1033.9
20260507165102 57 320 2.0 2.0 0.00 0.00 0.00 41 1033.9
20260507164558 56 324 0.0 1.0 0.00 0.00 0.00 45 1033.7
20260507164055 57 312 1.0 1.0 0.00 0.00 0.00 41 1034.0
20260507163552 57 319 1.0 1.0 0.00 0.00 0.00 47 1034.0
20260507163045 55 306 1.0 1.0 0.00 0.00 0.00 46 1034.1
20260507162544 55 23 1.0 2.0 0.00 0.00 0.00 41 1034.1
20260507162042 57 313 1.0 2.0 0.00 0.00 0.00 42 1034.2
20260507161539 55 334 0.0 1.0 0.00 0.00 0.00 44 1034.3
20260507161035 54 294 2.0 2.0 0.00 0.00 0.00 47 1034.2
20260507160531 55 313 1.0 2.0 0.00 0.00 0.00 47 1034.3
20260507160027 54 281 2.0 2.0 0.00 0.00 0.00 48 1034.5
20260507155522 54 349 0.0 0.0 0.00 0.00 0.00 49 1034.6
20260507155020 55 271 1.0 2.0 0.00 0.00 0.00 49 1034.8
20260507154517 53 315 1.0 2.0 0.00 0.00 0.00 48 1034.7
20260507154014 54 264 2.0 3.0 0.00 0.00 0.00 48 1034.7
20260507153511 54 281 3.0 5.0 0.00 0.00 0.00 53 1034.5
20260507153007 53 334 0.0 0.0 0.00 0.00 0.00 51 1034.7
20260507152502 53 324 0.0 0.0 0.00 0.00 0.00 58 1034.6
20260507151959 52 317 0.0 1.0 0.00 0.00 0.00 55 1034.8
20260507151455 52 307 3.0 5.0 0.00 0.00 0.00 51 1034.8
20260507150953 53 319 0.0 0.0 0.00 0.00 0.00 58 1034.8
20260507150449 53 303 0.0 1.0 0.00 0.00 0.00 51 1034.8
20260507145945 52 309 2.0 2.0 0.00 0.00 0.00 55 1034.6
20260507145441 52 321 1.0 1.0 0.00 0.00 0.00 57 1034.7
20260507144938 52 309 1.0 2.0 0.00 0.00 0.00 56 1034.8
20260507144435 52 306 2.0 2.0 0.00 0.00 0.00 60 1034.9
20260507143932 52 305 0.0 1.0 0.00 0.00 0.00 65 1034.8
20260507143430 51 321 1.0 2.0 0.00 0.00 0.00 64 1034.8
20260507142926 51 296 1.0 2.0 0.00 0.00 0.00 66 1034.6
20260507142422 51 310 0.0 1.0 0.00 0.00 0.00 68 1034.6
20260507141920 50 296 1.0 2.0 0.00 0.00 0.00 73 1034.6
20260507141415 50 299 1.0 2.0 0.00 0.00 0.00 69 1034.6
20260507140912 50 308 1.0 2.0 0.00 0.00 0.00 70 1034.5
20260507140409 50 286 2.0 2.0 0.00 0.00 0.00 68 1034.4
20260507135907 50 303 2.0 2.0 0.00 0.00 0.00 73 1034.5
20260507135403 49 294 1.0 2.0 0.00 0.00 0.00 72 1034.4
20260507134901 49 290 2.0 2.0 0.00 0.00 0.00 72 1034.5
20260507134357 49 297 1.0 2.0 0.00 0.00 0.00 74 1034.3
20260507133853 49 312 0.0 0.0 0.00 0.00 0.00 78 1034.4
20260507133349 48 313 0.0 1.0 0.00 0.00 0.00 76 1034.3
20260507132848 48 313 0.0 0.0 0.00 0.00 0.00 79 1034.5
20260507132343 47 310 0.0 1.0 0.00 0.00 0.00 85 1034.7
20260507131841 46 325 0.0 0.0 0.00 0.00 0.00 86 1034.7
20260507131337 45 308 2.0 2.0 0.00 0.00 0.00 82 1034.5
20260507130834 44 332 0.0 0.0 0.00 0.00 0.00 92 1034.7
20260507130331 44 316 1.0 2.0 0.00 0.00 0.00 96 1034.7
20260507125830 45 323 0.0 0.0 0.00 0.00 0.00 98 1034.8
20260507125327 44 314 1.0 1.0 0.00 0.00 0.00 98 1034.7
20260507124824 44 333 0.0 0.0 0.00 0.00 0.00 99 1034.7
20260507124321 44 328 0.0 0.0 0.00 0.00 0.00 99 1034.8
20260507123819 45 328 0.0 0.0 0.00 0.00 0.00 99 1034.4
20260507123316 45 327 0.0 0.0 0.00 0.00 0.00 99 1034.6
20260507122812 44 326 0.0 0.0 0.00 0.00 0.00 99 1034.4
20260507122308 44 340 0.0 0.0 0.00 0.00 0.00 99 1034.6
20260507121804 44 345 0.0 0.0 0.00 0.00 0.00 99 1034.8
20260507121300 44 334 0.0 0.0 0.00 0.00 0.00 99 1034.6
20260507120756 44 332 0.0 0.0 0.00 0.00 0.00 99 1034.4
20260507120253 44 326 0.0 0.0 0.00 0.00 0.00 99 1034.3
20260507115749 43 349 0.0 1.0 0.00 0.00 0.00 99 1034.4
20260507115245 43 28 0.0 0.0 0.00 0.00 0.00 99 1034.2
20260507114741 43 321 0.0 0.0 0.00 0.00 0.00 99 1034.2
20260507114238 43 339 0.0 0.0 0.00 0.00 0.00 99 1034.1
20260507113736 42 336 0.0 0.0 0.00 0.00 0.00 99 1034.2
20260507113232 42 348 0.0 0.0 0.00 0.00 0.00 99 1034.2
20260507112731 42 323 0.0 0.0 0.00 0.00 0.00 99 1034.1
20260507112227 42 330 0.0 0.0 0.00 0.00 0.00 99 1034.3
20260507111725 42 331 0.0 0.0 0.00 0.00 0.00 99 1034.4
20260507111221 41 327 0.0 0.0 0.00 0.00 0.00 99 1034.5
20260507110717 41 335 0.0 0.0 0.00 0.00 0.00 99 1034.6
20260507110214 41 340 0.0 0.0 0.00 0.00 0.00 99 1034.5
20260507105711 41 346 0.0 0.0 0.00 0.00 0.00 99 1034.4
20260507105206 41 344 0.0 0.0 0.00 0.00 0.00 99 1034.4
20260507104704 41 323 0.0 0.0 0.00 0.00 0.00 99 1034.8
20260507104201 41 332 0.0 0.0 0.00 0.00 0.00 99 1034.7
20260507103656 41 328 0.0 0.0 0.00 0.00 0.00 99 1034.5
20260507103153 41 338 0.0 0.0 0.00 0.00 0.00 99 1034.6
20260507102649 41 347 0.0 0.0 0.00 0.00 0.00 99 1034.6
20260507102146 41 326 0.0 0.0 0.00 0.00 0.00 99 1034.6
20260507101642 41 325 0.0 0.0 0.00 0.00 0.00 99 1034.5
20260507101138 40 325 0.0 0.0 0.00 0.00 0.00 99 1034.5
20260507100635 40 327 0.0 0.0 0.00 0.00 0.00 99 1034.4
20260507100134 40 334 0.0 0.0 0.00 0.00 0.00 99 1034.4
20260507095631 41 338 0.0 0.0 0.00 0.00 0.00 99 1034.5
20260507095127 41 354 0.0 0.0 0.00 0.00 0.00 99 1034.8
20260507094624 41 341 0.0 1.0 0.00 0.00 0.00 99 1034.8
20260507094121 40 353 0.0 0.0 0.00 0.00 0.00 99 1034.6
20260507093618 41 353 0.0 0.0 0.00 0.00 0.00 99 1034.6
20260507093117 41 353 0.0 0.0 0.00 0.00 0.00 99 1034.6
20260507092613 41 353 0.0 0.0 0.00 0.00 0.00 99 1034.6
20260507092109 41 353 0.0 0.0 0.00 0.00 0.00 99 1034.7
20260507091606 41 354 0.0 0.0 0.00 0.00 0.00 99 1034.9
20260507091102 41 354 0.0 0.0 0.00 0.00 0.00 99 1034.7
20260507090558 41 353 0.0 0.0 0.00 0.00 0.00 99 1034.8
20260507090055 41 353 0.0 0.0 0.00 0.00 0.00 99 1035.0
20260507085552 41 353 0.0 0.0 0.00 0.00 0.00 99 1034.8
20260507085049 42 353 0.0 0.0 0.00 0.00 0.00 99 1034.7
20260507084546 42 353 0.0 0.0 0.00 0.00 0.00 99 1034.7
20260507084043 42 353 0.0 0.0 0.00 0.00 0.00 99 1034.8
20260507083539 41 353 0.0 0.0 0.00 0.00 0.00 99 1034.7
20260507083036 41 353 0.0 0.0 0.00 0.00 0.00 99 1034.9
20260507082532 41 353 0.0 0.0 0.00 0.00 0.00 99 1034.6
20260507082029 41 353 0.0 0.0 0.00 0.00 0.00 99 1034.6
20260507081525 42 353 0.0 0.0 0.00 0.00 0.00 99 1034.7
20260507081022 42 353 0.0 0.0 0.00 0.00 0.00 99 1034.7
20260507080518 42 353 0.0 0.0 0.00 0.00 0.00 99 1034.6
20260507080015 42 353 0.0 0.0 0.00 0.00 0.00 99 1034.7
20260507075510 42 353 0.0 0.0 0.00 0.00 0.00 99 1034.5
20260507075007 42 353 0.0 0.0 0.00 0.00 0.00 99 1034.4
20260507074503 42 353 0.0 0.0 0.00 0.00 0.00 99 1034.5
20260507074002 43 353 0.0 0.0 0.00 0.00 0.00 99 1034.3
20260507073457 43 353 0.0 0.0 0.00 0.00 0.00 99 1034.3
20260507072954 43 353 0.0 0.0 0.00 0.00 0.00 99 1034.2
20260507072452 43 353 0.0 0.0 0.00 0.00 0.00 99 1034.3
20260507071949 43 353 0.0 0.0 0.00 0.00 0.00 99 1033.9
20260507071446 43 353 0.0 0.0 0.00 0.00 0.00 99 1034.0
20260507070942 44 353 0.0 0.0 0.00 0.00 0.00 99 1033.7
20260507070440 44 353 0.0 0.0 0.00 0.00 0.00 99 1034.0
20260507065936 44 353 0.0 0.0 0.00 0.00 0.00 99 1033.8
20260507065433 44 353 0.0 0.0 0.00 0.00 0.00 99 1033.7
20260507064931 44 353 0.0 0.0 0.00 0.00 0.00 99 1033.8
20260507064429 44 354 0.0 0.0 0.00 0.00 0.00 99 1034.1
20260507063926 44 352 0.0 0.0 0.00 0.00 0.00 99 1034.1
20260507063423 44 352 0.0 0.0 0.00 0.00 0.00 99 1033.9
20260507062920 44 353 0.0 0.0 0.00 0.00 0.00 99 1033.8
20260507062416 44 351 0.0 0.0 0.00 0.00 0.00 99 1034.1
20260507061909 44 351 0.0 0.0 0.00 0.00 0.00 99 1033.8
20260507061407 44 351 0.0 0.0 0.00 0.00 0.00 99 1033.8
20260507060905 44 350 0.0 0.0 0.00 0.00 0.00 99 1034.1
20260507060401 44 350 0.0 0.0 0.00 0.00 0.00 99 1033.7
20260507055858 44 351 0.0 0.0 0.00 0.00 0.00 99 1033.7
20260507055353 44 349 0.0 0.0 0.00 0.00 0.00 99 1033.9
20260507054850 44 342 0.0 0.0 0.00 0.00 0.00 99 1034.4
20260507054346 44 342 0.0 0.0 0.00 0.00 0.00 99 1034.4
20260507053843 44 349 0.0 0.0 0.00 0.00 0.00 99 1034.1
20260507053341 44 350 0.0 0.0 0.00 0.00 0.00 99 1034.5
20260507052840 44 344 0.0 0.0 0.00 0.00 0.00 99 1034.5
20260507052336 44 345 0.0 0.0 0.00 0.00 0.00 99 1034.5
20260507051834 44 354 0.0 1.0 0.00 0.00 0.00 99 1034.1
20260507051331 44 350 0.0 0.0 0.00 0.00 0.00 99 1034.2
20260507050828 44 353 0.0 0.0 0.00 0.00 0.00 99 1034.2
20260507050324 44 342 0.0 0.0 0.00 0.00 0.00 99 1034.5
20260507045821 44 342 0.0 0.0 0.00 0.00 0.00 99 1034.3
20260507045318 44 341 0.0 0.0 0.00 0.00 0.00 99 1034.3
20260507044815 44 346 0.0 0.0 0.00 0.00 0.00 99 1033.9
20260507044312 44 351 0.0 0.0 0.00 0.00 0.00 99 1033.9
20260507043808 45 344 0.0 0.0 0.00 0.00 0.00 99 1034.1
20260507043304 45 347 0.0 0.0 0.00 0.00 0.00 99 1034.3
20260507042801 45 334 0.0 0.0 0.00 0.00 0.00 99 1034.2
20260507042256 45 343 0.0 0.0 0.00 0.00 0.00 99 1034.2
20260507041754 45 334 0.0 0.0 0.00 0.00 0.00 99 1034.2
20260507041250 45 334 0.0 0.0 0.00 0.00 0.00 99 1034.2
20260507040747 45 334 0.0 0.0 0.00 0.00 0.00 99 1034.0
20260507040243 45 334 0.0 0.0 0.00 0.00 0.00 99 1033.9
20260507035739 45 330 0.0 0.0 0.00 0.52 0.52 99 1034.1
20260507035234 45 330 0.0 0.0 0.00 0.52 0.52 99 1033.9
20260507034732 46 334 0.0 0.0 0.00 0.52 0.52 99 1033.8
20260507034229 46 348 0.0 0.0 0.00 0.52 0.52 99 1034.0
20260507033728 46 337 0.0 0.0 0.00 0.52 0.52 99 1034.3
20260507033225 46 340 0.0 0.0 0.05 0.52 0.52 99 1034.2
20260507032722 46 336 0.0 0.0 0.05 0.52 0.52 99 1034.3
20260507032218 46 335 0.0 0.0 0.00 0.51 0.51 99 1034.5
20260507031715 46 339 0.0 0.0 0.00 0.51 0.51 99 1034.2
20260507031211 46 347 0.0 0.0 0.00 0.51 0.51 99 1034.4
20260507030708 46 359 1.0 1.0 0.00 0.51 0.51 99 1034.5
20260507030206 46 346 0.0 0.0 0.00 0.51 0.51 99 1034.5
20260507025703 46 343 0.0 0.0 0.00 0.51 0.51 99 1034.4
20260507025200 46 342 0.0 0.0 0.00 0.51 0.51 99 1034.6
20260507024658 46 345 0.0 0.0 0.00 0.51 0.51 99 1034.6
20260507024155 46 343 0.0 0.0 0.00 0.51 0.51 99 1034.7
20260507023650 46 351 0.0 0.0 0.00 0.51 0.51 99 1034.7
20260507023148 46 336 0.0 0.0 0.00 0.51 0.51 99 1034.7
20260507022645 46 332 0.0 0.0 0.07 0.51 0.51 99 1034.9
20260507022140 46 328 0.0 0.0 0.07 0.51 0.51 99 1034.8
20260507021637 46 336 0.0 0.0 0.00 0.50 0.50 99 1034.8
20260507021132 46 326 0.0 0.0 0.00 0.50 0.50 99 1034.7
20260507020631 47 327 0.0 0.0 0.00 0.50 0.50 99 1034.6
20260507020127 47 328 0.0 0.0 0.00 0.50 0.50 99 1034.7
20260507015625 47 327 0.0 0.0 0.00 0.50 0.50 99 1034.6
20260507015122 47 341 0.0 0.0 0.05 0.50 0.50 99 1034.6
20260507014619 47 343 0.0 0.0 0.05 0.50 0.50 99 1034.6
20260507014115 47 330 0.0 0.0 0.00 0.49 0.49 99 1034.5
20260507013612 47 332 0.0 0.0 0.00 0.49 0.49 99 1034.6
20260507013109 47 335 0.0 0.0 0.07 0.49 0.49 99 1034.7
20260507012606 47 328 0.0 0.0 0.12 0.49 0.49 99 1034.5
20260507012101 47 335 0.0 0.0 0.05 0.48 0.48 99 1034.3
20260507011600 47 329 0.0 0.0 0.12 0.48 0.48 99 1034.4
20260507011055 47 331 0.0 0.0 0.07 0.47 0.47 99 1034.4
20260507010550 47 323 0.0 0.0 0.05 0.46 0.46 99 1034.1
20260507010047 48 0 0.0 0.0 0.12 0.46 0.46 99 1034.1
20260507005544 48 328 0.0 0.0 0.19 0.45 0.45 99 1034.1
20260507005040 48 328 0.0 0.0 0.19 0.44 0.44 99 1034.1
20260507004538 48 331 0.0 0.0 0.12 0.42 0.42 99 1033.9
20260507004035 47 327 0.0 0.0 0.12 0.41 0.41 99 1033.9
20260507003531 48 333 0.0 0.0 0.12 0.40 0.40 99 1033.9
20260507003026 48 358 1.0 1.0 0.12 0.39 0.39 99 1033.7